Погода в Гильяре

Россия / Республика Дагестан     41°33′25″N   48°15′17″E
темп.,
°C
ветер,
м/с
пор.,
м/с
влажн.,
%
обл.,
%
осадки,
мм/ч
давл.,
гПа
погр.,
м
24 мая, вт
вт2400:00+10ююз1286100 1.3 100451
03:00+10з1189100 2.1 100545
06:00+10юз1186100 0.0 100665
09:00+11всв1184100 0.0 1008170
12:00+11вюв1285100 0.3 1009409
15:00+9св2497100 1.6 1011303
18:00+9зюз2389100 0.4 101282
21:00+9з2287100 0.5 101343
25 мая, ср
ср2500:00+9ююз2294100 5.6 101466
03:00+8з1193100 12.3 1015132
06:00+7сз1296100 4.1 1018120
09:00+7з1191100 8.4 1019192
12:00+8зюз2287100 2.3 1020302
15:00+9с018087 3.1 1020457
18:00+10ссв018325 0.1 1021248
21:00+7юз338641 0.1 102327
26 мая, чт
чт2600:00+7юз447612 0.0 102344
03:00+7юз557131 0.0 102350
06:00+10зюз34715 0.0 1023104
09:00+14св325818 0.0 10221175
12:00+14всв4363100 0.1 10221163
15:00+12вюв2281100 0.4 1022195
18:00+12в127628 0.0 1022438
21:00+8юз33810 0.0 102324
27 мая, пт
пт2700:00+8юз44661 0.0 102243
03:00+8юз55580 0.0 102150
06:00+11юз34645 0.0 102175
09:00+16всв32540 0.0 1020774
12:00+18всв425614 0.0 10191293
15:00+19всв435846 0.0 10181205
18:00+15всв22760 0.0 1020122
21:00+12юз43810 0.0 102132
28 мая, сб
сб2800:00+12юз44690 0.0 102032
03:00+12юз43610 0.0 102029
06:00+14юз33640 0.0 101965
09:00+18в32610 0.0 1018711
12:00+21в43530 0.0 10161026
15:00+21всв43551 0.0 10141040
18:00+18ссв22740 0.0 101577
21:00+15зюз44580 0.0 101643